세미나안내

[2016 10 05] 정기세미나 3rd

Noble Metal Nanocrystals with Unprecedented Morphologies

MSE Graduate Students and Researchers

관리자 | 2016.10.04 09:04 | 조회 381


Reception: MSE Graduate Students and Researchers

Reference: MSE Professors

Subject: The 3rd Seminar - Fall Semester, 2016

 

 Date: 2016. 10. 05 , 17:00 ~ 18:15

 Place: Science Building, Room.202 Multimedia Room

 Title: Noble Metal Nanocrystals with Unprecedented Morphologies

 Speaker: Prof. Sang Woo Han(KAIST)

Host of a Seminar: Prof. Moon-Ho Jo

 

Speaker Language: ENGLISH

 

Abstract:

 

The morphology of metal nanocrystals explicitly determines their plasmonic, electronic, and catalytic characteristics. In particular, the catalytic activity and selectivity of nanocrystals can be tuned by controlling their shape, as the exposed surfaces of nanocrystals have distinct crystallographic planes that can determine their overall catalytic properties. However, the control of the size, shape, and composition of nanocrystals has been limited due to the complex kinetics in the reduction of metal precursors and to the difficulty in finding suitable stabilizing agents. Therefore, the development of an efficient synthesis route for the preparation of nanocrystals with a specific morphology is still a radical issue to study their properties and applications. Here, facile wet-chemical synthetic processes of noble metal nanocrystals with unprecedented morphologies and their applications in catalysis are reported.

 

 

Department of Materials Science and Engineering




153개(1/8페이지)
세미나안내
번호 제목 글쓴이 조회 날짜
153 [2017 03 29] 정기세미나 4th 첨부파일 관리자 138 2017.03.27 11:50
152 [2017 03 22] 정기세미나 3rd 첨부파일 관리자 1084 2017.03.20 09:28
151 [2017 03 15] 정기세미나 2nd 첨부파일 관리자 2268 2017.03.13 09:16
150 [2017 03 09] 특별세미나 Ph.D Rishi Raj 첨부파일 관리자 1449 2017.03.07 15:32
149 [2017 03 08] 정기세미나 1st 첨부파일 관리자 167 2017.03.07 09:13
148 [2017 02 22] 신소재공학과 특별세미나 첨부파일 관리자 164 2017.02.22 09:21
147 [2016 12 14] 정기세미나 12th 첨부파일 관리자 28935 2016.12.12 13:04
146 [2016 12 07] 정기세미나 11th 첨부파일 관리자 452 2016.12.05 09:11
145 [2016 11 30] 정기세미나 10th 첨부파일 관리자 519 2016.11.28 16:48
144 [2016 11 23] 정기세미나 9th 첨부파일 관리자 5625 2016.11.07 09:18
143 [2016 11 16] 정기세미나 8th 첨부파일 관리자 326 2016.11.07 09:18
142 [2016 11 15] 특별세미나 Ph.D Yadong Yin (Univ 첨부파일 관리자 267 2016.11.07 09:23
141 [2016 11 09] 정기세미나 7th 첨부파일 관리자 300 2016.11.07 09:18
140 [2016 11 02] 정기세미나 6th 첨부파일 관리자 312 2016.10.31 09:44
139 [2016 10 19] 정기세미나 5th 관리자 386 2016.10.17 15:32
138 [2016 10 12] 정기세미나 4th 첨부파일 관리자 295 2016.10.10 10:41
>> [2016 10 05] 정기세미나 3rd 첨부파일 관리자 382 2016.10.04 09:04
136 [2016 09 28] 정기세미나 2nd 첨부파일 관리자 475 2016.09.27 11:49
135 [2016 09 21] 정기세미나 1st 첨부파일 관리자 8650 2016.09.19 09:27
134 [2016 09 07] 신소재공학과 특별세미나 첨부파일 관리자 511 2016.09.05 14:15